Regional Weather Roundup
Issued by NWS New Orleans/Baton Rouge, LA

Home | Current Version | Previous Version | Text Only | Print | Product List | Glossary Off
Versions: 1 2 3 4 5 6 7 8 9 10 11 12 13 14 15 16 17 18 19 20 21 22 23 24 25 26 27 28 29 30 31 32 33 34 35 36 37 38 39 40 41 42 43 44 45 46 47 48 49 50

323
ASUS44 KLIX 281911
RWRLIX
NEW ORLEANS REGIONAL WEATHER ROUNDUP
NATIONAL WEATHER SERVICE NEW ORLEANS LA
200 PM CDT SAT MAR 28 2015

NOTE: "FAIR" INDICATES FEW OR NO CLOUDS BELOW 12,000 FEET WITH NO
      SIGNIFICANT WEATHER AND/OR OBSTRUCTIONS TO VISIBILITY.
      SKY/WX - SKY CONDITION AND SIGNIFICANT WEATHER.
      TMP - AIR TEMPERATURE.     DP    - DEWPOINT TEMPERATURE.
      RH  - RELATIVE HUMIDITY.   PRES  - PRESSURE.
      HI  - HEAT INDEX.          WCI   - WIND CHILL INDEX.

*  THESE STATIONS ARE NOT NWS OR FAA STATIONS AND ARE NOT UNDER
   NWS QUALITY CONTROL.

LAZ038-040-048-061>063-065>067-069-282000-
SOUTHEAST LOUISIANA

CITY           SKY/WX    TMP DP  RH WIND       PRES   REMARKS
N.O. AUDUBON   NOT AVBL
N.O. INTL ARPT MOSUNNY   67  43  41 VRB5      30.20F
N.O. LAKEFRONT SUNNY     66  40  38 E9        30.21F
SLIDELL        SUNNY     64  40  41 VRB7      30.21F
BATON ROUGE    SUNNY     69  41  36 W3        30.19F
BOOTHVILLE     SUNNY     62  44  51 E8        30.23F
BELLE CHASSE   MOSUNNY   65  42  43 VRB6      30.20F
BOGALUSA*        N/A     66  36  33 NE6       30.23F
GALLIANO*      CLEAR     68  46  45 MISG      30.21F
NEW ROADS*       N/A     66  40  39 E3        30.19F
GONZALES*        N/A     68  42  38 SW3       30.19F
HAMMOND*       SUNNY     66  34  30 CALM      30.22F
HOUMA*         SUNNY     70  50  49 SE9       30.19F
PORT FOURCHON* CLEAR     63  48  59 E13       30.24F

$$

MSZ070-080>082-282000-
SOUTHERN MISSISSIPPI

CITY           SKY/WX    TMP DP  RH WIND       PRES   REMARKS
MCCOMB         MOSUNNY   64  38  38 CALM      30.20F
GULFPORT       SUNNY     59  39  47 S8        30.23F
BILOXI         SUNNY     60  41  48 S10       30.23F
PASCAGOULA     SUNNY     62  39  42 S7        30.22F
STENNIS ARPT*  SUNNY     63  34  34 SE7       30.22F

$$

COASTAL OBSERVATIONS
LAKE AND NEARSHORE STATIONS

STATION/POSITION TIME  TEMP    WIND        PRES    WAVE
                       AIR SEA DIR/SP/G            HT/PER
                 (UTC) (F)     (DEG/KT/KT) (MB)    (FT/S)
PASCAGOULA       1800   57     190/  7/  9 1023.9
WAVELAND YACHT   1800   54 64  160/  8/ 11 1024.2
GRAND ISLE       1800   63 66  110/  6/ 10 1023.6
SOUTHWEST PASS   1800   67 52   70/ 10/ 13 1024.1
NEW CANAL        1800   64     100/  2/  7 1023.7
SHELL BEACH      1800   60 66   90/  6/  9 1023.7

OFFSHORE STATIONS

STATION/POSITION TIME  TEMP    WIND        PRES    WAVE
                       AIR SEA DIR/SP/G            HT/PER
                 (UTC) (F)     (DEG/KT/KT) (MB)    (FT/S)
64 S DAUPHIN ISL 1850   57 72   80/  6/ 10 1024.1    2/ 5

$$




USA.gov is the U.S. government's official web portal to all federal, state and local government web resources and services.